This is the latest recevied weather packets stored in our database for station/object KE4AMH. If no packets are shown the sender has not sent any weather packets the latest 10 day(s).
| Time | Temp. | Humidity | Pressure | Rain* | Wind** | Luminosity | Snow |
|---|---|---|---|---|---|---|---|
| 1778155582 | 17.22° C | 99% | 1010 hPa | 0.51 mm | - | 22 W/m² | - |
| 1778155279 | 17.22° C | 99% | 1010 hPa | 0.51 mm | - | 24 W/m² | - |
| 1778154976 | 17.22° C | 99% | 1009.7 hPa | 0.51 mm | - | 37 W/m² | - |
| 1778154671 | 17.22° C | 99% | 1009.7 hPa | 1.78 mm | - | 20 W/m² | - |
| 1778154367 | 17.22° C | 99% | 1010.1 hPa | 3.56 mm | - | 18 W/m² | - |
| 1778154065 | 17.22° C | 99% | 1010.2 hPa | 3.05 mm | - | 4 W/m² | - |
| 1778153762 | 17.22° C | 99% | 1010.8 hPa | 4.83 mm | - | 0 W/m² | - |
| 1778153459 | 17.22° C | 99% | 1010.3 hPa | 7.87 mm | - | 0 W/m² | - |
| 1778153157 | 17.22° C | 99% | 1011.3 hPa | 13.21 mm | - | 0 W/m² | - |
| 1778152853 | 17.22° C | 99% | 1011.3 hPa | 26.42 mm | - | 0 W/m² | - |
| 1778152550 | 17.22° C | 99% | 1011 hPa | 23.37 mm | - | 0 W/m² | - |
| 1778152247 | 17.22° C | 99% | 1011 hPa | 13.21 mm | - | 0 W/m² | - |
| 1778151943 | 17.22° C | 99% | 1010 hPa | 8.38 mm | - | 0 W/m² | - |
| 1778151640 | 17.22° C | 99% | 1010 hPa | 4.83 mm | - | 0 W/m² | - |
| 1778151337 | 17.22° C | 99% | 1009.9 hPa | 1.27 mm | - | 0 W/m² | - |
| 1778151033 | 17.22° C | 99% | 1009.9 hPa | 0.51 mm | - | 0 W/m² | - |
| 1778150731 | 17.22° C | 99% | 1009.8 hPa | 0.51 mm | - | 0 W/m² | - |
| 1778150427 | 17.22° C | 99% | 1009.9 hPa | 0.51 mm | - | 0 W/m² | - |
| 1778150123 | 17.22° C | 99% | 1009.9 hPa | 0.51 mm | - | 0 W/m² | - |
| 1778149820 | 17.22° C | 99% | 1009.5 hPa | 0.51 mm | - | 0 W/m² | - |
| 1778149516 | 17.22° C | 99% | 1010 hPa | 0.51 mm | - | 0 W/m² | - |
| 1778149212 | 17.22° C | 99% | 1010.1 hPa | 0 mm | - | 0 W/m² | - |
| 1778148908 | 17.22° C | 99% | 1010.3 hPa | 0 mm | - | 0 W/m² | - |
| 1778148605 | 17.22° C | 99% | 1010.4 hPa | 0 mm | - | 0 W/m² | - |
| 1778148302 | 17.22° C | 99% | 1010.5 hPa | 0 mm | - | 0 W/m² | - |
* Rain latest hour (hover to see other rain measurements)
** Current wind speed in m/s (hover to see current wind gust speed)